sat.trackr.live / text

‹ back to catalog

STARLINK-32261

NORAD 61530 · 2024-183X

PAYLOAD ACTIVE UNKNOWN

§ Identity

Operator
Country
US
Launch date
2024-10-15
Launch site
AFETR
Launch vehicle
Mass (kg)
RCS (m²)

Purposes: comms

External: N2YO · Heavens-Above · Gunter

§ Orbital elements

Epoch: 2026-09-20T20:52:13.949760Z

Period
94.01 min
Inclination
53.1612°
Eccentricity
0.0001400
Mean motion
15.31697353 rev/d
Perigee alt
469.8 km
Apogee alt
471.7 km
Semi-major
6,848.9 km
B*
2.9960e-5
RAAN
314.5650°
Arg perigee
83.5978°
Mean anomaly
276.5183°
Rev number
10,955

§ Raw data

STARLINK-322611 61530U 24183X   26263.86960590  .00000564  00000+0  29960-4 0  99992 61530  53.1612 314.5650 0001400  83.5978 276.5183 15.31697353109559

JSON: /api/v1/satellites/61530 · /tle

For live sub-satellite position, see the globe view (requires WebGL).

§ Visibility from observer

Set your observer location to see the next 7 days of passes ≥ 10°. The values pass through the URL so the page stays shareable.

No JS? Fill the form by hand. The geolocation button needs JavaScript.